User: anonymous   Login
Location: Geroldsau
(48.7259°N, 8.2466°E)
Time: 02:08:32
(UTC+00:00)
Language:

FALCON 9 DEB - Orbit

View from above orbital plane
View from above orbital plane
View from above satellite
View from above satellite

Ground track
Ground track

The orbit data is extracted from the following two-line orbital elements,

1 46085U 20055BL  21264.12583360  .00020813  00000-0  18878-3 0  9997
2 46085  53.0082  87.2727 0008939 196.5641 163.5084 15.67978053 68650
Epoch (UTC): 21 September 2021 03:01:12
Eccentricity: 0.0008939
inclination: 53.0082°
perigee height: 358 km
apogee height: 371 km
right ascension of ascending node: 87.2727°
argument of perigee: 196.5641°
revolutions per day: 15.67978053
mean anomaly at epoch: 163.5084°
orbit number at epoch: 6865

The dashed part of the orbit path shows where the satellite is in the earth's shadow,  

DLR